GGSE 3 DEB

基本信息
目录编号:
44043
目录名称:
GGSE 3 DEB
国际标识:
1965-016L
轨道中心:
EARTH
物体状态:
在轨
发射日期:
1965-03-09 UTC
轨道信息
数据来源: 国际轨道数据
星历时间: 2026-07-13T20:52:30+0800
半长轴: 7257.154km
偏心率: 0.0020663
轨道倾角: 70.074°
近地点辐角: 272.496°
升交点赤经: 245.800°
平近点角: 87.379°
近地点: 864.021km
远地点: 894.013km
周期: 102.544分钟
每日圈数: 14.042786
详细信息
发射场:
AFWTR
轨道高度:
LEO
数据来源:
AOE Integration Group
参考系:
TEME
时间系统:
UTC
历元类型:
SGP4
2D轨道图
3D轨道图
轨道高度分析图
轨道倾角分析图
轨道综合分析图
查看轨道综合分析图